Regional Weather Roundup
Issued by NWS Charleston, SC

Current Version | Previous Version | Text Only | Print | Product List | Glossary Off
Versions: 1 2 3 4 5 6 7 8 9 10 11 12 13 14 15 16 17 18 19 20 21 22 23 24 25 26 27 28 29 30 31 32 33 34 35 36 37 38 39 40 41 42 43 44 45 46 47 48 49 50

000
ASUS42 KCHS 242027
RWRCHS

REGIONAL WEATHER ROUNDUP
NATIONAL WEATHER SERVICE CHARLESTON SC
400 PM EDT SAT JUN 24 2017

NOTE: "FAIR" INDICATES FEW OR NO CLOUDS BELOW 12,000 FEET WITH NO
SIGNIFICANT WEATHER AND/OR OBSTRUCTIONS TO VISIBILITY.

NOT ALL STATIONS ARE QUALITY CONTROLLED. USE DATA WITH CAUTION...
ESPECIALLY DEWPOINT OBSERVATIONS.

SCZ027-030-031-034>040-042>050-242100-
...SOUTHEAST SOUTH CAROLINA...

CITY           SKY/WX    TMP DP  RH WIND       PRES   REMARKS
N CHARLESTON   MOSUNNY   91  74  57 SW14      29.98F HX 100
WATERFRONT PRK   N/A     86  77  74 SW8G18    29.98F HX  97
JOHNS ISLAND   CLOUDY    88  79  74 S14G20    29.99F HX 102
PINOPOLIS        N/A     90  73  58 SW7       29.89F HX  98
MONCKS CORNER  FAIR      90  70  51 SW9       29.96S HX  95
SUMMERVILLE    FAIR      91  72  52 S6        29.97F HX  98
BEAUFORT MCAS  MOSUNNY   94  71  47 SW14      29.99F HX 101
BEAUFORT ARPT  FAIR      88  77  70 S13G18    29.99S HAZE    HX 100
HILTON HEAD IS SUNNY     88  77  70 S17       30.01F HX 100
WALTERBORO     PTCLDY    91  68  46 SW14G22   29.98S HX  95
ALLENDALE      MOCLDY    91  73  55 VRB7      29.97S HX 100

...SOUTHERN MIDLANDS AND PEE DEE...

CITY           SKY/WX    TMP DP  RH WIND       PRES   REMARKS
GEORGETOWN     FAIR      88  77  70 S14G24    29.97F HX 100
KINGSTREE      FAIR      90  72  55 S8        29.94F HX  96
ORANGEBURG     LGT RAIN  93  74  53 W13G20    29.96S HX 103
BARNWELL       CLOUDY    91  73  55 W9        29.97S HX 100
AIKEN          LGT RAIN  72  72 100 SW8       30.03F
MANNING        FAIR      91  77  62 SW23G30   29.95S HX 105
COLUMBIA       TSTM      77  74  90 W9        29.98S
SUMTER         TSTM      86  77  74 SW13      29.94R HX  97
FLORENCE       MOSUNNY   91  74  57 S17       29.92F HX 100
MYRTLE BEACH   MOSUNNY   86  79  79 S18G28    29.96  HX  99
N MYRTLE BEACH SUNNY     85  78  80 S22G29    29.95F HX  96

$$

GAZ063-065-086>088-099>101-113>116-118-119-134>141-150-242100-
...SOUTHEAST GEORGIA...

CITY           SKY/WX    TMP DP  RH WIND       PRES   REMARKS
SAVANNAH ARPT  MOSUNNY   94  67  41 SW10G17   30.00F HX  97
HUNTER AAF     SUNNY     93  71  48 W6        29.97F HX  99
FORT STEWART   MOSUNNY   94  70  45 W10       29.98F HX 100
STATESBORO     SUNNY     93  70  47 W8G16     30.00S HX  99
SYLVANIA       PTCLDY    92  74  55 W5        30.00S HX 100
CLAXTON        FAIR      91  68  47 S6        30.00S HX  94

...CSRA...CENTRAL AND FAR SOUTHEAST GEORGIA...

CITY           SKY/WX    TMP DP  RH WIND       PRES   REMARKS
THOMSON        CLOUDY    75  74  96 CALM      30.03F
AUGUSTA-BUSH   LGT RAIN  76  74  93 S3        30.00F
AUGUSTA-DANIEL LGT RAIN  76  71  85 SW6       30.01F
SWAINSBORO     MOCLDY    90  72  55 SW8       30.01R THUNDER HX  96
VIDALIA        MOSUNNY   91  72  52 SW13G20   30.01S HX  98
EASTMAN        FAIR      92  57  30 SW13      30.03S HX  90
HAZLEHURST       N/A     92  70  49 SW8G16    30.00F HX  98
ALMA           MOSUNNY   92  70  48 W8        30.01F HX  97
WAYCROSS       PTSUNNY   94  76  54 W13       30.01F HX 107
JESUP          FAIR      95  68  41 W8        30.01F HX  99
BAXLEY         FAIR      95  73  49 W8        30.01S HX 105
BRUNSWICK      PTSUNNY   93  75  55 W8        30.02S HX 104
SAINT SIMONS   MOSUNNY   88  78  72 SE14G20   30.02S HX 101

$$

SCZ027-028-034-036>038-045-046-048>050-GAZ119-141-242100-
...LAKE AND SUPPLEMENTAL COASTAL OBSERVATIONS...

STATION/POSITION TIME  TEMP    WIND        PRES    WAVE   SWELL
                       AIR SEA DIR/SP/G            HT/PER HT/PER/DIR
                 (UTC) (F)     (DEG/KT/KT) (MB)    (FT/S) (FT/S/D)
WINYAH BAY       1945   88     200/ 15     1014.0F
LAKE MURRAY      1950   78     220/  8/ 14 1014.2R
ACE BASIN NERRS  1930   92     180/  1     1016.0S
FORT PULASKI     2000   87 84  190/  7/ 13 1016.1
SAPELO ISLAND    2000   91     190/  4     1016.0

$$

ANZ835-935-AMZ111-154-330-350-352-354-370-450-454-472-242100-
...C-MAN AND BUOY OBSERVATIONS...

STATION/POSITION TIME  TEMP    WIND        PRES    WAVE   SWELL
                       AIR SEA DIR/SP/G            HT/PER HT/PER/DIR
                 (UTC) (F)     (DEG/KT/KT) (MB)    (FT/S) (FT/S/D)
BUOY 41004       2010   81 81  210/ 14/ 17 1016.4
BUOY 41008       1950   82 83  170/ 14/ 16 1016.5F   3/ 8   2/100/ 8
FOLLY BEACH CMAN 2000   83     190/ 16/ 19 1016.5F
CAPERS NEARSHORE 2008   86 83  210/ 16/ 23 1015.4F
FRIPP NEARSHORE  2008   83 84  190/ 16/ 21 1015.6F


STATION/POSITION TIME  TEMP    WIND        PRES    WAVE   SWELL
                       AIR SEA DIR/SP/G            HT/PER HT/PER/DIR
                 (UTC) (F)     (DEG/KT/KT) (MB)    (FT/S) (FT/S/D)
5E ST. MARYS GA  2000      82                N/A     3/ 8
FRYING PAN BUOY  2010   81 81  210/ 19/ 23 1015.4
BUOY 41025       1950   81 80  230/ 19/ 23 1013.9F   7/ 8   2/140/15
CAPE LOOKOUT NC  2000   82     210/ 15/ 19 1013.5F
BUOY 41002       1950   81 81  210/ 14/ 16 1019.3F   4/ 5   2/100/ 9
BUOY 41010       2010   82 84  180/ 14/ 17 1019.0
ST AUGUSTINE FL  2000   80 81  140/ 12/ 14 1017.4F


$$




USA.gov is the U.S. government's official web portal to all federal, state and local government web resources and services.